Location: Buckenweiler
(49.0667°N, 10.2500°E)
Time: 00:17:12
(UTC+00:00)

Cosmos 2278 Rocket - Pass Details

Date: 18 January 2026
Orbit: 839 x 846 km, 71.0° (Epoch: 16 February)

Event Time Altitude Azimuth Distance (km) Brightness Sun altitude
Exits shadow 05:56:18 - 242° (WSW) 3,169 4.8 -11.1°
Reaches altitude 10° 05:58:23 10° 251° (WSW) 2,457 4.2 -10.8°
Maximum altitude 06:03:22 31° 313° (NW) 1,437 2.9 -10.0°
Drops below altitude 10° 06:08:23 10° 15° (NNE) 2,472 4.6 -9.3°
Sets 06:11:08 0° 25° (NNE) 3,412 5.4 -8.8°
